Find CICERO-1

NORAD ID: 42843 Int'l Des: NNA 2017-042 Owner: GEOOPT Country: US operational
LEOCIRCULARRETROGRADESSO

Live Position

Loading 3D Globe...

About CICERO-1

Description loading...

Upcoming Passes

Passes for default location (London). Set your location on the main map for personalized predictions.

Altitude History

Loading altitude history...

Two-Line Element Set

1 42843U 17042U 26105.19224931 .00001907 00000-0 15400-3 0 9990
2 42843 97.4410 264.4282 0012917 297.3746 62.6164 15.00913520477171
Epoch: Apr 15, 2026 • Age: 6 hours

Current Status

Altitude 581.0 km
Velocity 7.57 km/s
Sub-Earth Point -68.68°S, 80.06°W
Launch Date Jul 14, 2017
Age 8.7 years
Type other

Technical Details

Classification Payload
Mass 10.00 kg
Dry Mass 10.00 kg
Total Mass 10.00 kg
Length 0.30 m
Diameter 0.20 m
Span 0.60 m
Shape Box+2 pan
Manufacturer TYVAK
Bus Type Cubesat 6U
Phase Status In Orbit
Owner/State GEOOPT/US

Most Searched